Terminal Aerodrome Forecast
Issued by NWS Pittsburgh, PA

Current Version | Previous Version | Graphics & Text | Print | Product List | Glossary On
Versions: 1 2 3 4 5 6 7 8 9 10 11 12 13 14 15 16 17 18 19 20 21 22 23 24 25 26 27 28 29
000
FTUS41 KPBZ 211100
TAFPIT
TAF
KPIT 211136Z 2112/2218 25005KT P6SM SCT007 OVC015
      TEMPO 2112/2113 BKN006
     FM211500 28008KT P6SM -SHRA OVC015
     FM212100 31008KT P6SM VCSH BKN020=

USA.gov is the U.S. government's official web portal to all federal, state and local government web resources and services.